QTR8193 SCEL-SAEZ

Flight info

Callsign QTR8193
Flight time 1h 22m
Altitude 33000
Route ALBAL7C ALBAL UM424 ASADA ASADA7U
Aircraft B77L/H-SDE1E2E3FGHIJ2J3J4J5M1RWXY/LB1D1

Departure

Time 2026-05-06 03:30
Airport Comodoro Arturo Merino Benítez International Airport (SCEL)

Arrival

Time 2026-05-06 04:52
Airport Ezeiza International Airport - Ministro Pistarini (SAEZ)
Time Latitude Longitude Altitude Speed Heading
2026-05-06 03:05 -33.40720 -70.78934 1569 ft 0 kts 226°
2026-05-06 03:16 -33.40718 -70.78931 1569 ft 3 kts 226°
2026-05-06 03:16 -33.40701 -70.78907 1569 ft 4 kts 233°
2026-05-06 03:16 -33.40686 -70.78880 1569 ft 4 kts 245°
2026-05-06 03:16 -33.40679 -70.78851 1568 ft 4 kts 281°
2026-05-06 03:17 -33.40686 -70.78836 1568 ft 1 kts 356°
2026-05-06 03:19 -33.40644 -70.78838 1568 ft 10 kts 356°
2026-05-06 03:19 -33.40554 -70.78844 1568 ft 14 kts 356°
2026-05-06 03:19 -33.40457 -70.78848 1568 ft 14 kts
2026-05-06 03:19 -33.40360 -70.78849 1568 ft 14 kts 359°
2026-05-06 03:20 -33.40166 -70.78853 1568 ft 14 kts 359°
2026-05-06 03:20 -33.40069 -70.78859 1568 ft 14 kts 355°
2026-05-06 03:20 -33.39972 -70.78867 1568 ft 14 kts 357°
2026-05-06 03:21 -33.39877 -70.78872 1568 ft 14 kts 357°
2026-05-06 03:21 -33.39780 -70.78877 1569 ft 14 kts 357°
2026-05-06 03:21 -33.39683 -70.78883 1569 ft 14 kts 357°
2026-05-06 03:21 -33.39587 -70.78887 1569 ft 14 kts 359°
2026-05-06 03:22 -33.39490 -70.78890 1569 ft 14 kts 358°
2026-05-06 03:22 -33.39401 -70.78919 1569 ft 14 kts 301°
2026-05-06 03:22 -33.39400 -70.79034 1569 ft 14 kts 268°
2026-05-06 03:22 -33.39403 -70.79149 1569 ft 14 kts 268°
2026-05-06 03:23 -33.39408 -70.79278 1569 ft 19 kts 266°
2026-05-06 03:23 -33.39417 -70.79441 1569 ft 20 kts 266°
2026-05-06 03:23 -33.39375 -70.79588 1569 ft 20 kts 323°
2026-05-06 03:23 -33.39339 -70.79741 1569 ft 20 kts 268°
2026-05-06 03:24 -33.39344 -70.79901 1569 ft 11 kts 268°
2026-05-06 03:24 -33.39332 -70.79991 1570 ft 13 kts 296°
2026-05-06 03:24 -33.39222 -70.80060 1571 ft 23 kts 360°
2026-05-06 03:24 -33.39064 -70.80070 1571 ft 23 kts 356°
2026-05-06 03:25 -33.38905 -70.80080 1572 ft 23 kts 357°
2026-05-06 03:25 -33.38747 -70.80086 1571 ft 23 kts 358°
2026-05-06 03:25 -33.38588 -70.80093 1571 ft 23 kts 355°
2026-05-06 03:25 -33.38430 -70.80104 1571 ft 23 kts 358°
2026-05-06 03:26 -33.38273 -70.80111 1570 ft 23 kts 358°
2026-05-06 03:26 -33.38115 -70.80119 1570 ft 23 kts 358°
2026-05-06 03:26 -33.37956 -70.80127 1570 ft 23 kts 358°
2026-05-06 03:26 -33.37798 -70.80138 1570 ft 23 kts 356°
2026-05-06 03:27 -33.37639 -70.80145 1571 ft 23 kts 358°
2026-05-06 03:27 -33.37481 -70.80152 1571 ft 23 kts 358°
2026-05-06 03:27 -33.37322 -70.80160 1571 ft 23 kts 358°
2026-05-06 03:27 -33.37166 -70.80176 1571 ft 23 kts 346°
2026-05-06 03:28 -33.37122 -70.80331 1578 ft 23 kts 239°
2026-05-06 03:28 -33.37225 -70.80373 1577 ft 0 kts 178°
2026-05-06 03:28 -33.37238 -70.80372 1577 ft 10 kts 178°
2026-05-06 03:29 -33.37460 -70.80361 1579 ft 63 kts 177°
2026-05-06 03:29 -33.38120 -70.80325 1576 ft 125 kts 177°
2026-05-06 03:29 -33.39167 -70.80264 1588 ft 171 kts 176°
2026-05-06 03:29 -33.40397 -70.80201 1901 ft 183 kts 178°
2026-05-06 03:30 -33.41637 -70.80162 2491 ft 177 kts 177°
2026-05-06 03:30 -33.42899 -70.80094 2964 ft 185 kts 176°
2026-05-06 03:30 -33.44230 -70.80021 3311 ft 200 kts 176°
2026-05-06 03:30 -33.45697 -70.79939 3508 ft 222 kts 176°
2026-05-06 03:31 -33.47320 -70.79846 3729 ft 245 kts 177°
2026-05-06 03:31 -33.49076 -70.79745 4131 ft 261 kts 177°
2026-05-06 03:31 -33.50926 -70.79639 4689 ft 272 kts 177°
2026-05-06 03:31 -33.52847 -70.79528 5317 ft 280 kts 178°
2026-05-06 03:32 -33.54822 -70.79359 5953 ft 288 kts 175°
2026-05-06 03:32 -33.56818 -70.79116 6574 ft 296 kts 175°
2026-05-06 03:32 -33.58887 -70.78850 7213 ft 301 kts 175°
2026-05-06 03:32 -33.60993 -70.78583 7858 ft 307 kts 175°
2026-05-06 03:33 -33.63146 -70.78314 8470 ft 314 kts 176°
2026-05-06 03:33 -33.65341 -70.78043 9115 ft 319 kts 176°
2026-05-06 03:33 -33.67574 -70.77770 9763 ft 325 kts 176°
2026-05-06 03:33 -33.69849 -70.77493 10325 ft 333 kts 176°
2026-05-06 03:34 -33.72228 -70.77205 10560 ft 354 kts 176°
2026-05-06 03:34 -33.74728 -70.76904 10750 ft 377 kts 176°
2026-05-06 03:34 -33.77424 -70.76578 10950 ft 400 kts 176°
2026-05-06 03:34 -33.80184 -70.75939 11298 ft 413 kts 159°
2026-05-06 03:35 -33.82652 -70.74131 11930 ft 420 kts 137°
2026-05-06 03:35 -33.84511 -70.71431 12772 ft 420 kts 116°
2026-05-06 03:35 -33.85768 -70.68275 13470 ft 422 kts 111°
2026-05-06 03:35 -33.86963 -70.65001 14123 ft 430 kts 110°
2026-05-06 03:36 -33.88177 -70.61679 14847 ft 436 kts 111°
2026-05-06 03:36 -33.89422 -70.58324 15596 ft 442 kts 111°
2026-05-06 03:36 -33.90704 -70.54930 16284 ft 448 kts 111°
2026-05-06 03:36 -33.91999 -70.51528 16859 ft 456 kts 112°
2026-05-06 03:37 -33.93332 -70.48033 17626 ft 462 kts 112°
2026-05-06 03:37 -33.94683 -70.44485 18270 ft 470 kts 112°
2026-05-06 03:37 -33.96053 -70.40878 18847 ft 477 kts 112°
2026-05-06 03:37 -33.97444 -70.37214 19453 ft 481 kts 112°
2026-05-06 03:38 -33.98844 -70.33521 20055 ft 487 kts 112°
2026-05-06 03:38 -34.00259 -70.29776 20590 ft 493 kts 112°
2026-05-06 03:38 -34.01686 -70.25988 21104 ft 499 kts 112°
2026-05-06 03:38 -34.03132 -70.22154 21735 ft 504 kts 112°
2026-05-06 03:39 -34.04593 -70.18281 22243 ft 511 kts 112°
2026-05-06 03:39 -34.06063 -70.14379 22677 ft 519 kts 112°
2026-05-06 03:39 -34.07563 -70.10387 23095 ft 526 kts 112°
2026-05-06 03:39 -34.09077 -70.06360 23745 ft 528 kts 112°
2026-05-06 03:40 -34.10602 -70.02295 24210 ft 534 kts 113°
2026-05-06 03:40 -34.12144 -69.98180 24556 ft 542 kts 113°
2026-05-06 03:40 -34.13704 -69.94013 25037 ft 547 kts 113°
2026-05-06 03:40 -34.15277 -69.89809 25522 ft 550 kts 113°
2026-05-06 03:41 -34.16856 -69.85579 25962 ft 556 kts 113°
2026-05-06 03:41 -34.18377 -69.81315 26321 ft 561 kts 108°
2026-05-06 03:41 -34.19379 -69.76766 26618 ft 562 kts 97°
2026-05-06 03:41 -34.19999 -69.72095 27066 ft 564 kts 94°
2026-05-06 03:42 -34.20519 -69.67391 27500 ft 568 kts 94°
2026-05-06 03:42 -34.21042 -69.62641 27888 ft 573 kts 94°
2026-05-06 03:42 -34.21612 -69.57830 28275 ft 579 kts 95°
2026-05-06 03:42 -34.22235 -69.52980 28618 ft 584 kts 96°
2026-05-06 03:43 -34.22894 -69.48131 29028 ft 584 kts 97°
2026-05-06 03:43 -34.23562 -69.43347 29673 ft 583 kts 97°
2026-05-06 03:43 -34.24236 -69.38521 30214 ft 582 kts 97°
2026-05-06 03:43 -34.24903 -69.33682 30510 ft 585 kts 97°
2026-05-06 03:44 -34.25567 -69.28807 30934 ft 585 kts 96°
2026-05-06 03:44 -34.26221 -69.23959 31429 ft 582 kts 96°
2026-05-06 03:44 -34.26862 -69.19178 31785 ft 582 kts 96°
2026-05-06 03:44 -34.27506 -69.14366 32458 ft 575 kts 96°
2026-05-06 03:45 -34.28142 -69.09608 32970 ft 574 kts 96°
2026-05-06 03:45 -34.28778 -69.04816 33038 ft 580 kts 96°
2026-05-06 03:45 -34.29419 -68.99972 33312 ft 582 kts 96°
2026-05-06 03:45 -34.30030 -68.95315 33699 ft 581 kts 96°
2026-05-06 03:46 -34.30652 -68.90551 34099 ft 580 kts 96°
2026-05-06 03:46 -34.31278 -68.85740 34416 ft 578 kts 96°
2026-05-06 03:46 -34.31899 -68.80950 34935 ft 573 kts 96°
2026-05-06 03:46 -34.32513 -68.76197 34937 ft 578 kts 96°
2026-05-06 03:47 -34.33696 -68.66990 34944 ft 576 kts 96°
2026-05-06 03:47 -34.34948 -68.57199 34937 ft 575 kts 96°
2026-05-06 03:48 -34.36158 -68.47682 34924 ft 574 kts 96°
2026-05-06 03:48 -34.37364 -68.38132 34929 ft 573 kts 96°
2026-05-06 03:49 -34.38561 -68.28591 34921 ft 573 kts 96°
2026-05-06 03:49 -34.39746 -68.19084 34912 ft 574 kts 96°
2026-05-06 03:50 -34.40929 -68.09528 34915 ft 574 kts 96°
2026-05-06 03:50 -34.42105 -67.99974 34916 ft 574 kts 96°
2026-05-06 03:51 -34.43254 -67.90566 34903 ft 575 kts 96°
2026-05-06 03:51 -34.44420 -67.80976 34906 ft 575 kts 96°
2026-05-06 03:52 -34.45554 -67.71383 34896 ft 575 kts 95°
2026-05-06 03:52 -34.46649 -67.61847 34897 ft 575 kts 95°
2026-05-06 03:53 -34.47750 -67.52227 34884 ft 575 kts 95°
2026-05-06 03:53 -34.48845 -67.42630 34893 ft 575 kts 95°
2026-05-06 03:54 -34.49936 -67.33017 34882 ft 575 kts 95°
2026-05-06 03:54 -34.51011 -67.23467 34876 ft 574 kts 95°
2026-05-06 03:55 -34.52085 -67.13870 34882 ft 574 kts 95°
2026-05-06 03:55 -34.53153 -67.04264 34884 ft 575 kts 95°
2026-05-06 03:56 -34.54199 -66.94809 34886 ft 576 kts 95°
2026-05-06 03:56 -34.55255 -66.85174 34886 ft 576 kts 96°
2026-05-06 03:57 -34.56305 -66.75528 34888 ft 577 kts 95°
2026-05-06 03:57 -34.57349 -66.65870 34890 ft 578 kts 95°
2026-05-06 03:58 -34.58211 -66.57832 34892 ft 578 kts 95°
2026-05-06 03:58 -34.59409 -66.46586 34896 ft 578 kts 96°
2026-05-06 03:59 -34.60266 -66.38473 34896 ft 577 kts 96°
2026-05-06 03:59 -34.61275 -66.28862 34903 ft 577 kts 96°
2026-05-06 04:00 -34.62281 -66.19191 34908 ft 576 kts 96°
2026-05-06 04:00 -34.63273 -66.09588 34902 ft 576 kts 96°
2026-05-06 04:01 -34.64260 -65.99958 34908 ft 576 kts 96°
2026-05-06 04:01 -34.65226 -65.90459 34901 ft 575 kts 96°
2026-05-06 04:02 -34.66199 -65.80809 34909 ft 575 kts 96°
2026-05-06 04:02 -34.67165 -65.71166 34908 ft 575 kts 96°
2026-05-06 04:03 -34.68122 -65.61517 34909 ft 574 kts 96°
2026-05-06 04:03 -34.69064 -65.51943 34916 ft 574 kts 96°
2026-05-06 04:04 -34.70004 -65.42325 34908 ft 573 kts 96°
2026-05-06 04:04 -34.70937 -65.32693 34908 ft 573 kts 96°
2026-05-06 04:05 -34.71859 -65.23073 34902 ft 572 kts 96°
2026-05-06 04:05 -34.72773 -65.13458 34904 ft 571 kts 96°
2026-05-06 04:06 -34.73678 -65.03866 34907 ft 570 kts 96°
2026-05-06 04:06 -34.74553 -64.94510 34893 ft 570 kts 96°
2026-05-06 04:07 -34.75440 -64.84940 34901 ft 568 kts 96°
2026-05-06 04:07 -34.76319 -64.75382 34911 ft 569 kts 95°
2026-05-06 04:08 -34.77191 -64.65817 34907 ft 569 kts 95°
2026-05-06 04:08 -34.78057 -64.56244 34908 ft 569 kts 95°
2026-05-06 04:09 -34.78918 -64.46677 34907 ft 569 kts 95°
2026-05-06 04:09 -34.79767 -64.37159 34905 ft 569 kts 95°
2026-05-06 04:10 -34.80614 -64.27571 34902 ft 568 kts 95°
2026-05-06 04:10 -34.81450 -64.18014 34904 ft 568 kts 95°
2026-05-06 04:11 -34.82280 -64.08452 34944 ft 567 kts 95°
2026-05-06 04:11 -34.83081 -63.99139 34908 ft 567 kts 95°
2026-05-06 04:12 -34.83902 -63.89589 34907 ft 566 kts 95°
2026-05-06 04:12 -34.84721 -63.80067 34908 ft 566 kts 95°
2026-05-06 04:13 -34.85532 -63.70527 34907 ft 565 kts 95°
2026-05-06 04:13 -34.86331 -63.61030 34914 ft 564 kts 95°
2026-05-06 04:14 -34.87119 -63.51580 34915 ft 564 kts 95°
2026-05-06 04:14 -34.87903 -63.42075 34902 ft 563 kts 95°
2026-05-06 04:15 -34.88678 -63.32583 34934 ft 563 kts 95°
2026-05-06 04:15 -34.89448 -63.23070 34921 ft 563 kts 95°
2026-05-06 04:16 -34.90205 -63.13628 34922 ft 563 kts 95°
2026-05-06 04:16 -34.90959 -63.04118 34923 ft 563 kts 95°
2026-05-06 04:17 -34.91692 -62.94789 34925 ft 562 kts 95°
2026-05-06 04:17 -34.92431 -62.85288 34928 ft 562 kts 95°
2026-05-06 04:18 -34.93162 -62.75784 34927 ft 562 kts 95°
2026-05-06 04:18 -34.93885 -62.66312 34929 ft 561 kts 95°
2026-05-06 04:19 -34.94604 -62.56876 34936 ft 561 kts 95°
2026-05-06 04:19 -34.95323 -62.47398 34928 ft 561 kts 95°
2026-05-06 04:20 -34.96035 -62.37912 34935 ft 561 kts 95°
2026-05-06 04:20 -34.96726 -62.28503 34937 ft 560 kts 94°
2026-05-06 04:21 -34.97099 -62.18995 34930 ft 560 kts 91°
2026-05-06 04:21 -34.97309 -62.09492 34939 ft 561 kts 91°
2026-05-06 04:22 -34.97564 -61.99989 34944 ft 562 kts 91°
2026-05-06 04:23 -34.97999 -61.85922 34962 ft 563 kts 92°
2026-05-06 04:23 -34.98285 -61.76357 34944 ft 564 kts 91°
2026-05-06 04:24 -34.98559 -61.66774 34939 ft 564 kts 91°
2026-05-06 04:24 -34.98824 -61.57265 34933 ft 564 kts 91°
2026-05-06 04:24 -34.98954 -61.52500 34535 ft 559 kts 91°
2026-05-06 04:25 -34.99080 -61.47786 34087 ft 554 kts 91°
2026-05-06 04:25 -34.99204 -61.43110 33619 ft 549 kts 91°
2026-05-06 04:25 -34.99324 -61.38473 33154 ft 544 kts 91°
2026-05-06 04:25 -34.99442 -61.33875 32710 ft 538 kts 91°
2026-05-06 04:26 -34.99556 -61.29332 32271 ft 533 kts 91°
2026-05-06 04:26 -34.99668 -61.24844 31857 ft 527 kts 91°
2026-05-06 04:26 -34.99777 -61.20380 31441 ft 522 kts 91°
2026-05-06 04:26 -34.99884 -61.15971 31030 ft 518 kts 91°
2026-05-06 04:27 -34.99986 -61.11657 30625 ft 513 kts 91°
2026-05-06 04:27 -35.00087 -61.07359 30231 ft 509 kts 91°
2026-05-06 04:27 -35.00187 -61.03043 29784 ft 505 kts 91°
2026-05-06 04:27 -35.00281 -60.98922 29330 ft 501 kts 91°
2026-05-06 04:28 -35.00376 -60.94697 28895 ft 496 kts 91°
2026-05-06 04:28 -35.00468 -60.90506 28484 ft 490 kts 91°
2026-05-06 04:28 -35.00558 -60.86365 28072 ft 486 kts 91°
2026-05-06 04:28 -35.00646 -60.82268 27660 ft 481 kts 91°
2026-05-06 04:29 -35.00731 -60.78260 27262 ft 476 kts 91°
2026-05-06 04:29 -35.00814 -60.74236 26850 ft 472 kts 91°
2026-05-06 04:29 -35.00895 -60.70249 26463 ft 468 kts 91°
2026-05-06 04:29 -35.00974 -60.66309 26065 ft 464 kts 91°
2026-05-06 04:30 -35.01052 -60.62376 25691 ft 460 kts 91°
2026-05-06 04:30 -35.01128 -60.58483 25302 ft 456 kts 91°
2026-05-06 04:30 -35.01202 -60.54631 24924 ft 453 kts 91°
2026-05-06 04:30 -35.01274 -60.50800 24544 ft 450 kts 90°
2026-05-06 04:31 -35.01344 -60.46999 24164 ft 447 kts 90°
2026-05-06 04:31 -35.01413 -60.43223 23778 ft 444 kts 90°
2026-05-06 04:31 -35.01479 -60.39514 23378 ft 441 kts 90°
2026-05-06 04:31 -35.01545 -60.35778 22941 ft 438 kts 90°
2026-05-06 04:32 -35.01609 -60.32069 22543 ft 435 kts 90°
2026-05-06 04:32 -35.01671 -60.28396 22154 ft 431 kts 90°
2026-05-06 04:32 -35.01732 -60.24743 21771 ft 427 kts 90°
2026-05-06 04:32 -35.01791 -60.21135 21396 ft 423 kts 90°
2026-05-06 04:33 -35.01848 -60.17611 21016 ft 419 kts 90°
2026-05-06 04:33 -35.01904 -60.14070 20637 ft 415 kts 90°
2026-05-06 04:33 -35.01958 -60.10555 20275 ft 412 kts 90°
2026-05-06 04:33 -35.02011 -60.07087 19914 ft 408 kts 90°
2026-05-06 04:34 -35.02062 -60.03633 19552 ft 405 kts 90°
2026-05-06 04:34 -35.02113 -60.00213 19182 ft 401 kts 90°
2026-05-06 04:34 -35.02160 -59.96940 18831 ft 398 kts 90°
2026-05-06 04:34 -35.02207 -59.93573 18465 ft 395 kts 90°
2026-05-06 04:35 -35.02253 -59.90221 18063 ft 393 kts 90°
2026-05-06 04:35 -35.02298 -59.86904 17654 ft 389 kts 90°
2026-05-06 04:35 -35.02341 -59.83662 17280 ft 385 kts 90°
2026-05-06 04:35 -35.02384 -59.80418 16918 ft 381 kts 90°
2026-05-06 04:36 -35.02424 -59.77208 16541 ft 376 kts 90°
2026-05-06 04:36 -35.02464 -59.74025 16185 ft 372 kts 90°
2026-05-06 04:36 -35.02503 -59.70885 15844 ft 368 kts 89°
2026-05-06 04:36 -35.02541 -59.67774 15487 ft 364 kts 89°
2026-05-06 04:37 -35.02577 -59.64693 15147 ft 360 kts 89°
2026-05-06 04:37 -35.02532 -59.61663 14790 ft 354 kts 82°
2026-05-06 04:37 -35.02135 -59.58723 14463 ft 349 kts 76°
2026-05-06 04:37 -35.01587 -59.55858 14126 ft 345 kts 74°
2026-05-06 04:38 -35.01013 -59.53029 13780 ft 341 kts 74°
2026-05-06 04:38 -35.00459 -59.50264 13423 ft 338 kts 75°
2026-05-06 04:38 -34.99918 -59.47481 13074 ft 334 kts 75°
2026-05-06 04:38 -34.99396 -59.44730 12725 ft 330 kts 75°
2026-05-06 04:39 -34.98889 -59.42013 12403 ft 326 kts 76°
2026-05-06 04:39 -34.98395 -59.39334 12073 ft 322 kts 76°
2026-05-06 04:39 -34.97910 -59.36689 11755 ft 317 kts 76°
2026-05-06 04:39 -34.97439 -59.34116 11437 ft 313 kts 76°
2026-05-06 04:40 -34.96968 -59.31538 11130 ft 309 kts 76°
2026-05-06 04:40 -34.96504 -59.29001 10831 ft 305 kts 76°
2026-05-06 04:40 -34.96045 -59.26495 10527 ft 300 kts 76°
2026-05-06 04:40 -34.95596 -59.24043 10343 ft 291 kts 76°
2026-05-06 04:41 -34.95163 -59.21679 10203 ft 280 kts 76°
2026-05-06 04:41 -34.94746 -59.19406 10074 ft 269 kts 76°
2026-05-06 04:41 -34.94337 -59.17186 9960 ft 271 kts 76°
2026-05-06 04:41 -34.93914 -59.14892 9675 ft 281 kts 76°
2026-05-06 04:42 -34.93490 -59.12597 9388 ft 281 kts 76°
2026-05-06 04:42 -34.93065 -59.10288 9090 ft 277 kts 76°
2026-05-06 04:42 -34.92647 -59.08022 8798 ft 271 kts 76°
2026-05-06 04:42 -34.92237 -59.05802 8512 ft 266 kts 75°
2026-05-06 04:43 -34.91829 -59.03598 8253 ft 268 kts 75°
2026-05-06 04:43 -34.91409 -59.01340 7977 ft 277 kts 76°
2026-05-06 04:43 -34.90924 -58.99167 7662 ft 274 kts 63°
2026-05-06 04:43 -34.89789 -58.97408 7379 ft 264 kts 35°
2026-05-06 04:44 -34.88212 -58.96340 7103 ft 255 kts 22°
2026-05-06 04:44 -34.86574 -58.95465 6831 ft 260 kts 21°
2026-05-06 04:44 -34.84895 -58.94564 6552 ft 266 kts 21°
2026-05-06 04:44 -34.83200 -58.93650 6228 ft 267 kts 22°
2026-05-06 04:45 -34.81515 -58.92736 5906 ft 263 kts 22°
2026-05-06 04:45 -34.79851 -58.91832 5608 ft 260 kts 22°
2026-05-06 04:45 -34.78249 -58.90860 5290 ft 256 kts 36°
2026-05-06 04:45 -34.77102 -58.89207 5030 ft 260 kts 63°
2026-05-06 04:46 -34.76560 -58.87106 4767 ft 262 kts 85°
2026-05-06 04:46 -34.76646 -58.84917 4478 ft 256 kts 97°
2026-05-06 04:46 -34.76834 -58.83516 4328 ft 251 kts 100°
2026-05-06 04:46 -34.77190 -58.81461 3993 ft 244 kts 101°
2026-05-06 04:47 -34.77549 -58.79512 3709 ft 227 kts 101°
2026-05-06 04:47 -34.77979 -58.77154 3392 ft 201 kts 101°
2026-05-06 04:47 -34.78173 -58.76080 3246 ft 190 kts 100°
2026-05-06 04:47 -34.78450 -58.74540 3068 ft 185 kts 100°
2026-05-06 04:48 -34.78724 -58.73010 2876 ft 186 kts 100°
2026-05-06 04:48 -34.79000 -58.71483 2669 ft 182 kts 99°
2026-05-06 04:48 -34.79267 -58.69998 2470 ft 179 kts 99°
2026-05-06 04:48 -34.79534 -58.68513 2233 ft 180 kts 99°
2026-05-06 04:49 -34.79793 -58.67073 1966 ft 167 kts 98°
2026-05-06 04:49 -34.80033 -58.65748 1742 ft 153 kts 98°
2026-05-06 04:49 -34.80249 -58.64541 1556 ft 145 kts 98°
2026-05-06 04:49 -34.80463 -58.63343 1377 ft 146 kts 98°
2026-05-06 04:50 -34.80681 -58.62129 1190 ft 147 kts 98°
2026-05-06 04:50 -34.80898 -58.60923 990 ft 146 kts 98°
2026-05-06 04:50 -34.81114 -58.59714 790 ft 147 kts 100°
2026-05-06 04:50 -34.81332 -58.58507 625 ft 145 kts 101°
2026-05-06 04:51 -34.81558 -58.57288 400 ft 149 kts 101°
2026-05-06 04:51 -34.81775 -58.56068 252 ft 149 kts 101°
2026-05-06 04:51 -34.81997 -58.54837 103 ft 148 kts 101°
2026-05-06 04:51 -34.82195 -58.53719 89 ft 115 kts 102°
2026-05-06 04:52 -34.82321 -58.53023 87 ft 28 kts 102°
2026-05-06 04:52 -34.82281 -58.52899 88 ft 20 kts 353°
2026-05-06 04:52 -34.82096 -58.52955 87 ft 36 kts 345°
2026-05-06 04:52 -34.81843 -58.53043 90 ft 32 kts 344°
2026-05-06 04:53 -34.81633 -58.53117 89 ft 30 kts 344°
2026-05-06 04:53 -34.81432 -58.53186 90 ft 30 kts 344°
2026-05-06 04:53 -34.81231 -58.53256 93 ft 30 kts 344°
2026-05-06 04:53 -34.81030 -58.53325 90 ft 30 kts 344°
2026-05-06 04:54 -34.80925 -58.53361 90 ft 10 kts 344°
2026-05-06 04:54 -34.80875 -58.53413 89 ft 10 kts 295°
2026-05-06 04:54 -34.80884 -58.53507 84 ft 13 kts 253°
2026-05-06 04:54 -34.80884 -58.53626 80 ft 14 kts 272°
2026-05-06 04:55 -34.80883 -58.53724 80 ft 9 kts 258°
2026-05-06 04:55 -34.80887 -58.53744 84 ft 0 kts 253°